Flag for Japan Weather past 2 weeks in Nagoya, Japan

Now
68 °F

Passing clouds.


Feels Like: 68 °F
Forecast: 57 / 76 °F
Wind: 24 mph from Northwest

Location: Nagoya Airport

Current Time: Jun 4, 2015 at 2:44:19 AM

Latest Report: Jun 4, 2015 at 2:00 AM


Visibility: N/A

Pressure: 29.65 "Hg

Humidity: 60%

Dew point: 54 °F

Location of NagoyaLocation

Historic Weather in Nagoya — Graph

°F

Nagoya temperature yesterday

Maximum temperature yesterday: 73 °F (at 1:30 PM)
Minimum temperature yesterday: 68 °F (at 11:30 PM)
Average temperature yesterday: 71 °F

Past Weeks' High & Low Weather Summary

 TemperatureHumidityPressure
High84 °F (May 30, 3:00 PM)94% (May 26, 4:00 AM)30.01 "Hg (May 26, 4:00 AM)
Low55 °F (May 21, 1:30 AM)34% (May 27, 11:00 AM)29.50 "Hg (May 20, 2:00 PM)
Average71 °F69%29.76 "Hg
* Reported May 20 1:00 AM — Jun 4 1:30 AM, Nagoya, Weather by CustomWeather, © 2015

Note: Actual official high and low records may vary slightly from our data, if they occured in-between our weather recording intervals... More about our weather records

Advertising

Nagoya weather history for previous 24 hours

 ConditionsComfort  
Time TempWeatherWind HumidityBarometerVisibility
1:30 AM
Thu, Jun 4
68 °FPassing clouds.30 mph64%29.65 "HgN/A
1:00 AM68 °FPassing clouds.25 mph60%29.65 "HgN/A
12:30 AM68 °FPassing clouds.28 mph60%29.62 "HgN/A
12:00 AM68 °FPassing clouds.24 mph64%29.62 "HgN/A
11:30 PM
Wed, Jun 3
68 °FPassing clouds.24 mph64%29.65 "HgN/A
11:00 PM70 °FPassing clouds.24 mph64%29.65 "HgN/A
10:30 PM70 °FPassing clouds.26 mph64%29.65 "HgN/A
10:00 PM70 °FPassing clouds.28 mph64%29.65 "HgN/A
9:30 PM70 °FPassing clouds.31 mph64%29.65 "HgN/A
9:00 PM70 °FPartly cloudy.31 mph69%29.62 "HgN/A
8:30 PM72 °FPartly cloudy.31 mph65%29.59 "HgN/A
8:00 PM72 °FPartly cloudy.28 mph65%29.59 "HgN/A
7:30 PM72 °FPartly cloudy.28 mph65%29.59 "HgN/A
7:00 PM72 °FBroken clouds.14 mph73%29.56 "HgN/A
6:30 PM72 °FScattered showers. Broken clouds.8 mph88%29.56 "HgN/A
6:00 PM73 °FBroken clouds.12 mph83%29.56 "HgN/A
5:30 PM73 °FPartly sunny.9 mph83%29.56 "HgN/A
5:00 PM73 °FPartly sunny.7 mph83%29.56 "HgN/A
4:30 PM73 °FScattered showers. Broken clouds.9 mph83%29.56 "HgN/A
4:00 PM73 °FBroken clouds.14 mph83%29.56 "HgN/A
3:30 PM73 °FBroken clouds.16 mph78%29.53 "HgN/A
3:00 PM73 °FLight rain. Broken clouds.17 mph83%29.53 "HgN/A
2:30 PM73 °FLight rain. Broken clouds.13 mph78%29.53 "HgN/A
2:00 PM73 °FLight rain. Broken clouds.15 mph83%29.53 "HgN/A
1:30 PM73 °FBroken clouds.2 mph83%29.53 "HgN/A
1:00 PM72 °FBroken clouds.7 mph88%29.53 "HgN/A
12:30 PM72 °FScattered showers. Broken clouds.6 mph88%29.56 "HgN/A
12:00 PM72 °FBroken clouds.8 mph88%29.53 "HgN/A
11:30 AM70 °FSprinkles. Partly sunny.15 mph94%29.53 "HgN/A
11:00 AM70 °FSprinkles. Partly sunny.12 mph94%29.53 "Hg4 mi
10:30 AM72 °FSprinkles. Partly sunny.10 mph88%29.50 "Hg4 mi
10:00 AM72 °FSprinkles. Broken clouds.15 mph88%29.53 "Hg5 mi
9:30 AM70 °FScattered showers. Partly sunny.8 mph94%29.53 "Hg5 mi
9:00 AM70 °FSprinkles. Fog.16 mph94%29.53 "Hg3 mi
8:30 AM70 °FRain showers. Fog.15 mph94%29.53 "Hg2 mi
8:00 AM70 °FRain showers. Fog.12 mph94%29.53 "Hg2 mi
7:30 AM70 °FRain showers. Fog.2 mph94%29.53 "Hg3 mi
7:00 AM70 °FRain showers. Fog.12 mph88%29.53 "Hg3 mi
6:30 AM70 °FRain showers. Fog.14 mph94%29.56 "Hg2 mi
6:00 AM70 °FSprinkles. Fog.14 mph88%29.56 "Hg2 mi
5:30 AM70 °FSprinkles. Fog.13 mph94%29.59 "Hg2 mi
5:00 AM70 °FRain showers. Fog.8 mph88%29.62 "Hg2 mi
4:30 AM70 °FLots of rain. Fog.7 mph94%29.62 "Hg1 mi
4:00 AM70 °FRain showers. Fog.9 mph94%29.62 "Hg2 mi
3:30 AM70 °FRain. Fog.8 mph94%29.65 "Hg2 mi
3:00 AM70 °FLight rain. Passing clouds.8 mph94%29.65 "Hg5 mi
2:30 AM70 °FLight rain. Passing clouds.8 mph94%29.68 "HgN/A
2:00 AM70 °FLight rain. Passing clouds.9 mph94%29.68 "HgN/A
Weather by CustomWeather, © 2015

See weather overviewHow to use our weather pages